Location: Unspecified
(43.4680°N, 87.1740°E)
Time: 21:07:54
(UTC+00:00)

Cosmos 2218 Rocket - Pass Details

Date: 17 April 2021
Orbit: 955 x 1007 km, 82.9° (Epoch: 11 May)

Event Time Altitude Azimuth Distance (km) Brightness Sun altitude
Rises 20:08:49 0° 350° (N) 3,645 7.6 -29.5°
Reaches altitude 10° 20:11:19 10° 349° (NNW) 2,698 6.8 -29.2°
Enters shadow 20:17:15 73° 282° (WNW) 1,006 3.9 -28.6°
